Reflectivity
-20 -20 -20 -16 -20 -20 -20 -20 -20 -20 -20 -20 -20 -20 -20 -20 -20 -20 -20 -20 -20 -20 -20 -20 -20 -20 -20 -20 -20 -20 -20 -20 -20 11 -7 4 11 15 3 13 10 9 -20
-20 -20 -20 -20 -20 -20 -20 -20 -20 -20 -20 -20 -20 -20 -20 -20 -20 -20 -20 -20 -20 -20 -20 -20 -20 -20 -20 -20 -20 -20 -20 -20 11 8 -18 -8 10 18 -0 -20 2 10 0
-20 -20 -20 -9 -20 -20 -20 -20 -20 -20 -20 -20 -20 -20 -20 -20 -20 -20 -20 -20 -20 -20 -20 -20 -20 -20 -20 -20 -20 -20 -20 -17 -10 -20 -20 -20 -20 17 13 14 13 -17 10
-20 -20 -20 14 -20 -20 -20 -20 -20 -20 -20 -20 -20 -20 -20 -20 -20 -20 -15 -17 -20 -20 -20 -20 -20 -20 -20 -20 -20 -20 -20 -20 -20 1 -20 -20 -20 -6 4 17 10 5 3
-20 -20 -20 10 -20 -20 -20 -20 -20 -20 -20 -20 -20 -20 -20 -20 -20 -20 -20 -12 -20 -20 -20 -20 -20 -20 -20 -20 -20 -20 -20 -20 -20 -20 -20 -20 -20 -20 -20 4 12 14 14
-20 -20 1 -20 -20 -20 -20 -20 -20 -20 -20 -20 -20 -20 -20 -4 0 -20 -20 -20 -20 -20 -20 -20 -20 -20 -20 -20 -20 -20 -20 -20 -20 -20 -20 -20 -20 -20 -20 -1 1 14 20
-20 -20 -20 -20 -20 -20 -20 -20 -20 -20 -20 -20 -20 -20 -14 -9 -2 -20 -20 -20 5 11 -4 -20 -20 -20 -20 -20 -20 -20 -20 -20 -20 -20 -20 -20 -20 -20 -20 14 9 -5 17
-20 -20 -20 -20 -20 -20 -20 -20 -20 -20 -20 -20 -20 -20 -18 10 -9 -20 -20 -19 -20 -20 -20 -20 -20 -20 -20 -20 -20 -20 -20 -20 -20 -20 -20 -20 -20 -20 -20 7 14 9 -1
-20 -20 -20 -20 -20 -20 -20 -20 -20 -20 -20 -20 -20 -20 -20 -20 -20 -20 -20 -20 -20 -20 -20 -20 -20 -20 -20 -20 -20 -20 -20 -20 -20 -20 -20 -20 -20 -20 -17 -13 11 -20 -18
-20 -20 -20 -20 -20 -20 -20 -20 -20 -20 -20 -20 -20 -20 -20 -20 -20 -20 -20 -20 -20 -20 -20 -20 -20 -20 -20 -20 -20 -20 -20 -20 -20 -20 -20 -20 -20 -20 -20 -4 -20 -20 -20
-20 -20 -20 -20 -20 -20 -20 -20 -20 -20 -20 -20 -20 -20 -20 -15 -20 -20 -20 -20 -20 -20 -20 -20 -20 -20 -20 -20 -20 -20 -20 -20 -20 -20 -20 -20 -20 -20 -11 -20 -20 -20 -20
-20 -20 -20 -20 -20 -20 -20 -20 -20 -20 -20 -20 -20 -20 -16 -12 -20 -20 -20 -20 -20 -20 -20 -20 -20 -20 -20 -20 -20 -20 -20 -20 -20 -20 -20 -20 -20 -20 -20 -20 -20 -20 -20
-20 -20 -20 -20 -20 -20 -20 -20 -20 -20 -20 -20 -20 -20 -20 -20 -20 -20 -20 -20 -20 -20 -20 -20 -20 -20 -20 -20 -20 -20 -20 -20 -20 -20 -20 -20 -20 -20 -0 -20 -20 -20 -20
-20 -20 -20 -20 -20 -20 -20 -20 -20 -20 -20 -20 -20 -20 -20 -20 -20 -20 -20 -20 -20 -20 -20 -20 -20 -20 -20 -20 -20 -20 -20 -20 -20 -20 -20 -20 -20 -20 -20 -20 -20 -20 -20
-20 -20 -20 -20 -20 -20 -20 -20 -20 -20 -20 -20 -20 -16 -20 -20 -20 -20 -20 -20 -20 -20 -20 -20 -20 -20 -20 -20 -20 -20 -20 -20 -20 -20 -20 -20 -20 -20 -20 -20 -20 -20 -20
-20 -20 -20 -20 -20 -20 -20 -20 -20 -20 -20 -20 -20 -8 -20 -20 -20 -20 -20 -20 -20 -20 -20 -20 -20 -20 -20 -20 -20 -20 -20 -20 -20 -20 -20 -20 -20 -20 -20 -20 -20 -20 -20
-20 -20 -20 -20 -20 -20 -20 -20 -20 -17 -17 -20 -13 16 6 -20 -20 -20 -20 -20 -20 -20 -20 -20 -20 -20 -20 -20 -20 -20 -20 -20 -20 -20 -20 -20 -20 -20 -20 -20 -20 -20 -20
-20 -20 -20 -20 -20 -20 -20 -20 -20 -20 -20 6 -8 -5 5 -9 -20 -20 -20 -20 -20 -20 -20 -20 -20 -20 -20 -20 -20 -20 -20 -20 -20 -20 -20 -20 -20 -20 -20 -20 -20 -20 -20
-20 -20 -20 -20 -20 -20 -20 0 -13 3 -20 -20 -20 -20 -20 -8 13 -20 -20 -8 -20 -20 -20 -20 -20 -20 -20 -20 -20 -20 -20 -20 -20 -20 -20 -20 -20 -20 -20 -20 -20 -20 -20
-20 -20 -20 -20 -20 -20 -19 -9 -16 -20 -20 -20 -20 -16 -13 4 25 22 -20 -20 -20 -20 -20 -20 -20 -20 -20 -20 -20 -20 -20 -20 -20 -20 -20 -20 -20 -20 -20 -20 -20 -20 -20
-20 -20 -20 -20 -18 -20 -8 -20 -20 -20 -20 -20 -20 -20 10 -4 22 7 2 17 -4 -20 -20 -20 -20 -20 -20 -20 -20 -20 -20 -20 -20 -20 -20 -20 -20 -20 -20 -20 -20 -20 -20
-20 -20 -20 -20 8 0 -10 -1 -20 -9 16 24 -20 -20 -7 -15 -11 10 3 18 -18 -20 -20 -20 -20 -20 -20 -20 -20 -20 -20 -20 -20 -20 -20 -20 -20 -20 -20 -20 -20 -20 -20
-20 -20 -20 -20 -20 21 21 29 23 7 -1 -3 -4 -10 -20 20 5 25 24 23 21 17 -17 -17 -20 -20 -20 -20 -20 -20 -20 -20 -20 -20 -20 6 -19 -20 -20 -20 -20 -20 -20
-20 -20 9 9 -4 28 20 -9 6 10 -15 -20 -20 -20 -20 21 25 26 18 8 -15 9 -20 -17 -18 -20 -20 -20 -20 -20 -20 -20 -20 -20 -20 -19 -20 -20 -20 -20 -20 -20 -20
-20 -20 -20 16 28 25 25 18 11 -15 25 24 -6 -12 -20 10 13 14 22 18 25 21 20 16 -12 -20 -13 -20 -20 -20 -20 -20 -20 -20 -20 -20 -20 -20 -20 -1 -19 -20 -20
-20 -20 -3 1 8 27 9 29 28 27 27 28 23 25 -9 10 -1 21 21 13 17 9 3 25 11 -3 1 -20 -20 -20 -20 -20 -20 -20 -20 -20 -20 -20 -20 -2 13 7 3
Wind_Speed
10 18 21 17 15 15 15 16 17 18 18 19 20 19 19 18 18 17 16 15 15 16 15 14 13 13 13 13 13 13 13 12 13 16 18 18 17 15 15 16 10 7 13
13 16 24 20 17 16 16 16 16 17 17 18 18 18 18 17 16 16 15 14 14 15 15 13 12 12 12 12 12 11 12 11 13 14 16 19 18 15 15 14 12 9 11
17 14 16 21 18 18 17 17 17 17 17 18 17 17 17 17 16 15 14 14 14 14 14 13 12 12 12 12 11 11 10 11 15 16 15 9 11 14 14 15 14 13 11
17 15 17 21 19 19 18 18 18 17 17 17 17 16 16 16 15 15 13 13 13 14 12 12 11 12 12 11 9 14 18 18 18 18 9 9 10 14 13 14 14 17 16
18 15 16 20 17 16 17 18 18 18 16 16 16 16 16 15 14 14 13 13 13 14 12 11 11 13 13 11 13 17 20 20 19 14 8 6 6 12 14 14 15 19 18
13 12 17 15 16 17 16 16 17 17 16 15 15 16 16 16 15 15 13 11 12 11 11 10 12 15 13 11 17 19 19 20 16 9 6 11 7 13 15 15 17 19 20
16 13 15 17 17 18 17 17 17 17 16 15 15 16 17 17 16 14 13 13 12 12 11 9 12 16 15 16 16 18 18 17 9 7 7 6 7 14 18 18 19 20 20
12 13 13 16 18 18 18 16 15 16 16 14 14 16 17 18 15 15 14 15 15 14 12 9 11 15 16 19 18 16 16 16 10 9 7 6 13 14 16 17 19 17 17
7 12 12 14 14 15 14 13 13 15 15 14 13 14 15 15 15 16 16 16 15 15 14 13 13 15 19 19 19 17 16 16 7 6 7 4 14 16 16 16 17 18 16
6 8 11 10 11 11 10 12 12 13 15 16 14 13 13 13 14 15 15 15 15 13 13 14 16 18 21 21 20 19 18 16 6 6 4 5 14 16 17 17 17 17 16
6 9 9 11 10 9 8 9 12 14 14 16 15 14 10 6 6 11 10 15 15 14 12 12 13 15 20 20 20 19 15 4 5 4 3 12 14 16 18 17 16 16 16
14 12 11 11 11 9 8 7 6 8 8 8 9 9 6 4 5 6 8 13 14 13 13 13 15 18 14 7 8 12 4 5 4 4 3 12 14 15 16 16 15 15 16
14 12 13 12 11 12 9 6 4 5 6 4 8 9 8 4 3 3 3 4 4 8 3 6 7 4 7 6 6 5 5 4 3 3 5 11 13 16 15 16 15 15 15
17 15 14 13 13 12 8 8 8 7 6 5 7 10 8 5 4 4 3 4 4 4 5 4 4 6 7 7 8 8 6 4 3 3 5 8 11 15 14 15 14 15 15
16 18 17 16 16 14 13 9 8 9 7 7 7 8 8 8 7 5 4 4 4 4 4 4 5 6 8 8 6 9 7 6 6 3 2 8 6 12 14 15 14 14 15
16 19 20 20 17 16 16 16 12 10 10 7 7 8 10 9 8 7 5 5 4 5 4 5 5 6 6 8 7 7 7 5 6 5 3 4 8 10 15 13 13 13 14
19 18 19 20 19 20 19 15 12 11 11 10 9 9 10 8 8 8 6 5 5 4 6 5 4 5 7 6 8 6 6 6 5 6 4 4 6 15 15 13 12 12 13
17 22 21 18 20 19 17 13 11 10 10 10 9 9 11 9 9 7 7 6 5 5 5 5 6 5 5 7 6 6 5 5 5 5 5 4 4 4 10 13 12 12 12
22 20 21 22 22 20 16 11 11 12 10 10 10 10 14 12 10 9 7 7 8 6 5 7 3 7 6 5 6 5 5 5 5 5 5 6 6 5 3 13 13 12 11
12 12 15 16 18 18 12 10 9 9 11 11 12 11 15 13 13 11 8 8 9 7 5 4 7 3 5 7 7 5 3 3 4 4 5 5 5 5 5 6 5 6 12
10 16 21 19 19 14 14 14 13 15 12 11 11 15 16 14 14 13 7 8 8 10 11 10 5 8 3 5 6 4 4 3 2 3 4 4 5 5 6 5 4 3 4
8 13 17 19 18 17 14 15 12 11 10 10 8 12 15 17 16 14 13 11 11 9 9 10 9 4 4 8 5 4 4 0 1 2 2 5 5 4 5 5 6 5 5
19 13 16 18 19 18 17 8 4 5 3 4 9 10 12 15 16 16 13 11 13 11 11 13 11 12 5 5 11 6 4 5 4 2 3 2 6 4 4 6 6 6 5
14 18 15 15 16 15 17 14 16 15 11 12 11 10 11 14 14 15 16 14 13 9 11 11 9 9 7 13 4 1 2 6 5 2 1 3 3 5 6 5 6 5 5
11 12 16 17 12 14 14 16 14 15 13 8 8 12 13 13 16 15 14 14 13 10 11 12 10 7 6 9 8 3 2 3 3 4 4 3 1 1 3 6 6 5 5
9 10 10 17 19 16 14 15 15 19 15 9 10 11 11 11 11 13 13 13 13 12 12 11 10 10 7 6 4 4 4 4 4 4 3 3 5 2 1 2 5 5 4
Wind_Direction
187 159 165 165 159 143 136 133 131 129 129 128 126 125 126 129 129 128 126 122 118 113 107 103 99 94 91 88 86 86 88 82 82 84 75 68 64 60 54 48 69 71 69
146 162 157 162 155 147 145 140 135 132 130 129 128 128 130 130 130 129 126 121 117 113 110 105 98 90 86 82 84 87 91 93 91 85 79 70 63 59 59 54 56 54 77
145 157 154 159 156 151 152 147 140 138 136 135 133 132 133 133 132 130 128 125 121 117 112 103 92 83 79 78 81 82 105 119 76 75 73 70 60 52 49 43 54 47 86
140 151 160 166 159 156 156 151 145 144 141 141 138 137 137 136 136 137 136 130 124 115 109 100 88 77 70 73 77 87 98 91 83 75 63 58 61 58 56 55 47 59 56
144 147 159 166 159 158 159 152 148 147 146 145 143 142 139 141 140 138 132 130 130 118 114 102 92 81 72 60 102 100 95 91 83 77 72 64 57 60 61 61 58 58 58
139 138 158 162 159 157 163 157 152 147 148 147 147 145 142 141 139 134 132 126 115 125 123 114 99 85 74 73 96 99 93 91 84 78 65 69 67 72 74 71 66 58 59
149 149 159 161 161 160 166 164 156 150 148 149 147 146 143 143 139 131 123 130 132 130 128 116 98 92 86 101 99 98 94 92 88 81 75 66 70 77 74 74 67 60 57
148 148 159 163 163 163 167 165 159 152 148 148 144 143 142 150 140 133 133 143 143 139 129 115 98 96 102 110 105 97 98 100 90 83 69 67 81 82 78 73 71 64 52
149 153 162 167 167 163 165 162 161 157 151 148 147 145 143 142 142 140 140 148 149 146 138 129 107 100 108 110 108 104 101 94 77 77 81 69 90 89 83 75 74 71 65
140 160 167 168 165 164 168 163 162 161 155 151 149 147 143 141 146 145 147 152 154 150 145 141 126 124 125 120 113 106 102 93 82 84 83 93 90 89 83 79 73 70 68
167 175 176 171 167 161 160 173 168 166 162 155 149 153 141 145 146 150 153 157 157 152 147 135 118 124 128 127 124 119 109 98 94 88 87 98 98 95 89 84 78 75 70
186 184 179 178 172 161 167 166 170 173 174 169 161 151 131 132 141 148 159 160 159 157 148 136 122 126 118 120 118 105 86 92 91 93 91 106 106 101 98 90 83 78 73
182 179 185 180 176 171 168 156 165 175 169 166 160 146 137 144 153 144 146 156 147 151 134 125 115 110 124 120 110 108 106 98 88 79 92 107 111 105 108 90 83 80 75
190 191 183 181 179 183 173 172 169 171 166 175 166 150 149 157 157 159 159 155 158 145 145 138 122 126 120 112 121 117 109 108 102 88 97 96 117 116 109 97 90 83 79
190 194 192 184 184 181 180 180 176 178 176 178 169 167 161 165 170 163 166 157 167 150 151 148 133 130 129 124 121 126 121 115 107 94 84 90 102 119 113 97 96 91 84
197 197 190 190 189 187 187 183 183 181 171 171 181 178 173 170 171 174 167 171 173 167 160 151 149 137 134 131 123 126 122 112 108 104 90 89 73 84 101 103 95 93 88
200 190 195 196 195 195 195 189 183 186 176 174 176 181 178 173 172 168 172 171 179 175 154 141 125 108 121 125 125 122 124 122 117 110 102 84 70 85 98 100 92 91 89
193 195 191 193 197 197 199 193 191 191 181 178 175 171 180 177 171 172 176 181 169 161 154 147 141 118 128 138 134 136 129 123 119 115 104 93 81 80 105 103 96 91 88
202 198 197 195 196 198 201 199 200 199 192 188 179 176 177 179 175 176 188 186 163 161 166 159 135 139 138 129 135 124 129 133 137 132 124 114 112 105 100 109 99 92 87
220 229 217 198 197 194 198 199 200 199 206 191 187 185 184 185 180 178 186 180 168 159 149 150 155 107 133 144 130 103 94 125 136 141 138 128 122 119 109 95 99 99 95
200 203 205 210 209 184 193 193 200 206 198 198 198 184 174 186 184 175 195 166 175 174 171 166 142 145 108 123 107 73 43 59 117 155 148 144 142 140 123 119 115 88 89
259 217 219 216 205 202 202 202 209 205 220 211 195 185 189 181 184 185 185 173 181 167 164 167 160 139 122 171 136 128 138 71 133 182 152 167 159 148 137 130 123 113 98
4 306 228 222 217 214 209 210 233 166 124 191 201 192 191 187 186 188 186 176 176 175 178 175 165 172 146 196 176 142 140 193 127 140 189 195 157 164 154 144 132 128 124
4 2 306 241 228 222 209 194 193 201 195 203 195 198 190 187 191 187 179 173 180 179 178 181 174 168 147 181 197 68 96 140 157 151 177 163 176 176 173 166 144 140 140
13 11 13 356 251 229 214 213 202 204 216 206 192 182 184 183 179 182 186 180 176 178 177 172 176 162 166 172 177 154 112 82 99 136 162 153 103 188 181 162 151 149 153
356 17 38 6 10 316 219 225 208 219 206 190 195 183 181 180 180 180 179 177 180 179 172 167 172 164 152 148 137 151 156 157 160 139 117 121 150 147 173 161 148 154 162